GLD1793 SBBR-SBCY

Flight info

Callsign GLD1793
Flight time 1h 18m
Altitude 32000
Route UMSU1A SIREM DCT LODOV DCT MABMA DCT BOKIM BOKI1A
Aircraft B738/M-SDFGIRY/S

Departure

Time 2026-04-30 18:51
Airport Presidente Juscelino Kubitschek International Airport (SBBR)

Arrival

Time 2026-04-30 20:09
Airport Várzea Grande–Marechal Rondon International Airport (SBCY)
Time Latitude Longitude Altitude Speed Heading
2026-04-30 18:51 -16.07601 -47.92841 10518 ft 325 kts 265°
2026-04-30 18:51 -16.07713 -47.95233 10667 ft 346 kts 265°
2026-04-30 18:51 -16.07894 -47.97771 11051 ft 355 kts 258°
2026-04-30 18:52 -16.08762 -48.00170 11572 ft 357 kts 239°
2026-04-30 18:52 -16.09990 -48.02418 12227 ft 358 kts 238°
2026-04-30 18:52 -16.11232 -48.04687 12784 ft 363 kts 239°
2026-04-30 18:52 -16.12465 -48.06984 13375 ft 366 kts 239°
2026-04-30 18:53 -16.13698 -48.09312 13933 ft 370 kts 239°
2026-04-30 18:53 -16.14938 -48.11666 14454 ft 372 kts 240°
2026-04-30 18:53 -16.15762 -48.13235 14809 ft 374 kts 240°
2026-04-30 18:53 -16.17444 -48.16434 15460 ft 380 kts 240°
2026-04-30 18:54 -16.18288 -48.18039 15813 ft 381 kts 240°
2026-04-30 18:54 -16.19566 -48.20474 16295 ft 386 kts 240°
2026-04-30 18:54 -16.20854 -48.22931 16809 ft 389 kts 241°
2026-04-30 18:54 -16.22139 -48.25381 17393 ft 389 kts 241°
2026-04-30 18:55 -16.23447 -48.27873 17809 ft 395 kts 241°
2026-04-30 18:55 -16.26105 -48.32934 18766 ft 399 kts 241°
2026-04-30 18:55 -16.27447 -48.35476 19218 ft 401 kts 241°
2026-04-30 18:56 -16.30170 -48.40615 20040 ft 407 kts 241°
2026-04-30 18:56 -16.31544 -48.43201 20505 ft 408 kts 241°
2026-04-30 18:56 -16.32926 -48.45798 20918 ft 411 kts 241°
2026-04-30 18:57 -16.35707 -48.51000 21798 ft 414 kts 241°
2026-04-30 18:57 -16.37118 -48.53631 22220 ft 417 kts 241°
2026-04-30 18:57 -16.38549 -48.56296 22556 ft 421 kts 241°
2026-04-30 18:58 -16.41409 -48.61611 23415 ft 424 kts 241°
2026-04-30 18:58 -16.42856 -48.64295 23747 ft 427 kts 241°
2026-04-30 18:58 -16.44317 -48.67003 23990 ft 431 kts 241°
2026-04-30 18:59 -16.47251 -48.72444 24795 ft 430 kts 241°
2026-04-30 19:00 -16.51680 -48.80677 25842 ft 433 kts 241°
2026-04-30 19:00 -16.53149 -48.83424 26197 ft 434 kts 241°
2026-04-30 19:00 -16.56106 -48.88968 26752 ft 439 kts 241°
2026-04-30 19:01 -16.59066 -48.94555 27265 ft 445 kts 241°
2026-04-30 19:01 -16.60561 -48.97380 27651 ft 445 kts 241°
2026-04-30 19:02 -16.63687 -49.02961 28237 ft 448 kts 238°
2026-04-30 19:02 -16.67046 -49.08476 28855 ft 450 kts 237°
2026-04-30 19:03 -16.70392 -49.14027 29347 ft 454 kts 238°
2026-04-30 19:03 -16.73719 -49.19648 29893 ft 456 kts 238°
2026-04-30 19:04 -16.77031 -49.25288 30327 ft 459 kts 238°
2026-04-30 19:04 -16.80375 -49.30990 30714 ft 462 kts 238°
2026-04-30 19:05 -16.83736 -49.36725 31089 ft 464 kts 238°
2026-04-30 19:05 -16.87097 -49.42460 31471 ft 466 kts 238°
2026-04-30 19:06 -16.90471 -49.48224 31952 ft 465 kts 238°
2026-04-30 19:06 -16.95558 -49.56923 31931 ft 465 kts 239°
2026-04-30 19:07 -17.00581 -49.65524 31944 ft 461 kts 239°
2026-04-30 19:08 -17.07249 -49.76960 31938 ft 462 kts 239°
2026-04-30 19:09 -17.12265 -49.85580 31938 ft 463 kts 240°
2026-04-30 19:09 -17.15608 -49.91334 31936 ft 463 kts 239°
2026-04-30 19:10 -17.20541 -50.03536 31919 ft 459 kts 270°
2026-04-30 19:11 -17.19263 -50.13420 31927 ft 458 kts 280°
2026-04-30 19:12 -17.18197 -50.19861 31908 ft 439 kts 280°
2026-04-30 19:12 -17.17205 -50.26063 31918 ft 433 kts 279°
2026-04-30 19:13 -17.15252 -50.38545 31935 ft 436 kts 279°
2026-04-30 19:14 -17.14272 -50.44817 31930 ft 437 kts 279°
2026-04-30 19:14 -17.13286 -50.51101 31940 ft 438 kts 280°
2026-04-30 19:15 -17.12299 -50.57388 31928 ft 438 kts 280°
2026-04-30 19:15 -17.10822 -50.66767 31953 ft 437 kts 279°
2026-04-30 19:16 -17.09834 -50.73031 31933 ft 436 kts 280°
2026-04-30 19:17 -17.08350 -50.82406 31948 ft 434 kts 280°
2026-04-30 19:17 -17.06875 -50.91699 31940 ft 433 kts 280°
2026-04-30 19:18 -17.05392 -51.01009 31950 ft 432 kts 280°
2026-04-30 19:19 -17.04403 -51.07207 31943 ft 432 kts 280°
2026-04-30 19:19 -17.02915 -51.16502 31945 ft 433 kts 280°
2026-04-30 19:20 -17.01918 -51.22718 31944 ft 433 kts 280°
2026-04-30 19:21 -17.00416 -51.32049 31945 ft 435 kts 281°
2026-04-30 19:22 -16.98400 -51.44541 31944 ft 436 kts 280°
2026-04-30 19:23 -16.95361 -51.63274 31935 ft 437 kts 280°
2026-04-30 19:24 -16.93834 -51.72647 31942 ft 435 kts 281°
2026-04-30 19:25 -16.91290 -51.88194 31928 ft 433 kts 281°
2026-04-30 19:26 -16.89261 -52.00540 31933 ft 433 kts 281°
2026-04-30 19:27 -16.87729 -52.09831 31934 ft 433 kts 281°
2026-04-30 19:28 -16.86189 -52.19142 31920 ft 433 kts 281°
2026-04-30 19:29 -16.84138 -52.31507 31920 ft 434 kts 281°
2026-04-30 19:30 -16.82070 -52.43922 31915 ft 434 kts 281°
2026-04-30 19:31 -16.79995 -52.56330 31921 ft 434 kts 281°
2026-04-30 19:31 -16.78431 -52.65652 31911 ft 434 kts 281°
2026-04-30 19:32 -16.77388 -52.71854 31917 ft 434 kts 281°
2026-04-30 19:32 -16.76348 -52.78025 31913 ft 434 kts 281°
2026-04-30 19:33 -16.75299 -52.84231 31910 ft 434 kts 281°
2026-04-30 19:33 -16.74250 -52.90434 31912 ft 434 kts 281°
2026-04-30 19:34 -16.73198 -52.96635 31908 ft 434 kts 281°
2026-04-30 19:35 -16.71615 -53.05932 31913 ft 433 kts 281°
2026-04-30 19:35 -16.70541 -53.12118 31915 ft 433 kts 282°
2026-04-30 19:36 -16.69303 -53.18269 31905 ft 433 kts 283°
2026-04-30 19:36 -16.68352 -53.27618 31910 ft 433 kts 278°
2026-04-30 19:37 -16.67205 -53.33763 31920 ft 431 kts 285°
2026-04-30 19:37 -16.65760 -53.39796 31909 ft 432 kts 285°
2026-04-30 19:38 -16.64371 -53.45899 31913 ft 433 kts 284°
2026-04-30 19:38 -16.63051 -53.52036 31912 ft 433 kts 284°
2026-04-30 19:39 -16.61759 -53.58184 31914 ft 434 kts 283°
2026-04-30 19:39 -16.60686 -53.63297 31898 ft 435 kts 283°
2026-04-30 19:40 -16.59391 -53.69460 31905 ft 435 kts 283°
2026-04-30 19:40 -16.58092 -53.75623 31901 ft 435 kts 284°
2026-04-30 19:41 -16.56790 -53.81788 31901 ft 435 kts 284°
2026-04-30 19:41 -16.55493 -53.87920 31891 ft 435 kts 284°
2026-04-30 19:42 -16.54185 -53.94091 31889 ft 435 kts 284°
2026-04-30 19:42 -16.52880 -54.00243 31885 ft 434 kts 284°
2026-04-30 19:43 -16.51576 -54.06378 31880 ft 434 kts 284°
2026-04-30 19:44 -16.49616 -54.15581 31877 ft 433 kts 284°
2026-04-30 19:44 -16.48319 -54.21665 31872 ft 432 kts 284°
2026-04-30 19:45 -16.47011 -54.27786 31872 ft 432 kts 284°
2026-04-30 19:45 -16.45701 -54.33908 31872 ft 432 kts 284°
2026-04-30 19:46 -16.44398 -54.39990 31875 ft 432 kts 284°
2026-04-30 19:46 -16.43086 -54.46100 31873 ft 432 kts 284°
2026-04-30 19:47 -16.41772 -54.52216 31875 ft 432 kts 284°
2026-04-30 19:47 -16.40456 -54.58328 31873 ft 433 kts 284°
2026-04-30 19:48 -16.39139 -54.64440 31873 ft 433 kts 284°
2026-04-30 19:48 -16.37818 -54.70559 31866 ft 433 kts 284°
2026-04-30 19:49 -16.36496 -54.76674 31879 ft 433 kts 284°
2026-04-30 19:49 -16.35165 -54.82817 31369 ft 437 kts 284°
2026-04-30 19:49 -16.34497 -54.85902 30858 ft 436 kts 284°
2026-04-30 19:50 -16.33828 -54.88982 30301 ft 437 kts 284°
2026-04-30 19:50 -16.33158 -54.92072 29643 ft 439 kts 284°
2026-04-30 19:50 -16.32484 -54.95174 28962 ft 440 kts 284°
2026-04-30 19:50 -16.31806 -54.98292 28291 ft 440 kts 284°
2026-04-30 19:51 -16.31129 -55.01402 27626 ft 441 kts 284°
2026-04-30 19:51 -16.30457 -55.04488 26949 ft 442 kts 284°
2026-04-30 19:51 -16.29777 -55.07605 26238 ft 444 kts 284°
2026-04-30 19:51 -16.29091 -55.10748 25510 ft 446 kts 284°
2026-04-30 19:52 -16.28400 -55.13908 24757 ft 449 kts 284°
2026-04-30 19:52 -16.27704 -55.17090 23982 ft 452 kts 284°
2026-04-30 19:52 -16.27003 -55.20295 23119 ft 456 kts 284°
2026-04-30 19:52 -16.26295 -55.23529 22184 ft 459 kts 285°
2026-04-30 19:53 -16.25350 -55.26690 21296 ft 457 kts 294°
2026-04-30 19:53 -16.23910 -55.29635 20383 ft 456 kts 303°
2026-04-30 19:53 -16.22054 -55.32299 19580 ft 448 kts 313°
2026-04-30 19:53 -16.19981 -55.34658 18868 ft 440 kts 314°
2026-04-30 19:54 -16.17929 -55.36985 18197 ft 428 kts 314°
2026-04-30 19:54 -16.15950 -55.39232 17500 ft 425 kts 314°
2026-04-30 19:54 -16.13962 -55.41487 16863 ft 422 kts 314°
2026-04-30 19:54 -16.11989 -55.43742 16233 ft 419 kts 314°
2026-04-30 19:55 -16.10043 -55.45980 15610 ft 416 kts 314°
2026-04-30 19:55 -16.08104 -55.48214 14957 ft 415 kts 313°
2026-04-30 19:55 -16.06178 -55.50435 14338 ft 413 kts 313°
2026-04-30 19:55 -16.04254 -55.52654 13713 ft 413 kts 313°
2026-04-30 19:56 -16.02337 -55.54871 13030 ft 412 kts 312°
2026-04-30 19:56 -16.00429 -55.57096 12407 ft 410 kts 312°
2026-04-30 19:56 -15.98532 -55.59292 11742 ft 408 kts 313°
2026-04-30 19:56 -15.96640 -55.61474 11265 ft 402 kts 313°
2026-04-30 19:57 -15.94801 -55.63591 11121 ft 387 kts 313°
2026-04-30 19:57 -15.93022 -55.65633 10943 ft 375 kts 313°
2026-04-30 19:57 -15.91300 -55.67608 10781 ft 363 kts 313°
2026-04-30 19:57 -15.89631 -55.69523 10615 ft 352 kts 313°
2026-04-30 19:58 -15.88016 -55.71376 10463 ft 342 kts 313°
2026-04-30 19:58 -15.86444 -55.73179 10329 ft 332 kts 313°
2026-04-30 19:58 -15.84908 -55.74942 10186 ft 323 kts 313°
2026-04-30 19:58 -15.83440 -55.76626 10051 ft 315 kts 314°
2026-04-30 19:59 -15.81991 -55.78288 9920 ft 306 kts 314°
2026-04-30 19:59 -15.80558 -55.79931 9665 ft 303 kts 313°
2026-04-30 19:59 -15.77755 -55.83143 9068 ft 300 kts 313°
2026-04-30 20:00 -15.76361 -55.84741 8767 ft 298 kts 314°
2026-04-30 20:00 -15.74972 -55.86333 8467 ft 297 kts 314°
2026-04-30 20:00 -15.73586 -55.87921 8170 ft 295 kts 314°
2026-04-30 20:00 -15.72208 -55.89499 7873 ft 294 kts 314°
2026-04-30 20:01 -15.69465 -55.92640 7283 ft 294 kts 314°
2026-04-30 20:01 -15.68080 -55.94226 6972 ft 298 kts 314°
2026-04-30 20:01 -15.66669 -55.95837 6644 ft 305 kts 315°
2026-04-30 20:02 -15.63766 -55.99133 5961 ft 310 kts 313°
2026-04-30 20:02 -15.62352 -56.00772 5649 ft 303 kts 313°
2026-04-30 20:03 -15.59205 -56.03332 5078 ft 278 kts 336°
2026-04-30 20:03 -15.57490 -56.04200 4792 ft 269 kts 335°
2026-04-30 20:03 -15.55859 -56.05050 4659 ft 252 kts 334°
2026-04-30 20:03 -15.54358 -56.05844 4525 ft 235 kts 334°
2026-04-30 20:04 -15.52956 -56.06587 4380 ft 219 kts 334°
2026-04-30 20:04 -15.51627 -56.07344 3989 ft 214 kts 328°
2026-04-30 20:04 -15.50589 -56.08409 3772 ft 211 kts 305°
2026-04-30 20:05 -15.49613 -56.11212 3540 ft 209 kts 272°
2026-04-30 20:05 -15.49739 -56.12675 3417 ft 199 kts 257°
2026-04-30 20:05 -15.51003 -56.15090 3253 ft 184 kts 221°
2026-04-30 20:06 -15.51995 -56.15919 3129 ft 183 kts 208°
2026-04-30 20:06 -15.53140 -56.16464 2982 ft 180 kts 193°
2026-04-30 20:06 -15.54336 -56.16689 2814 ft 168 kts 181°
2026-04-30 20:06 -15.55460 -56.16625 2598 ft 161 kts 168°
2026-04-30 20:07 -15.56513 -56.16268 2426 ft 160 kts 155°
2026-04-30 20:07 -15.57538 -56.15785 2203 ft 162 kts 152°
2026-04-30 20:07 -15.59503 -56.14748 1771 ft 157 kts 151°
2026-04-30 20:08 -15.60481 -56.14228 1566 ft 158 kts 151°
2026-04-30 20:08 -15.61451 -56.13712 1353 ft 155 kts 151°
2026-04-30 20:08 -15.62416 -56.13199 1148 ft 157 kts 152°
2026-04-30 20:08 -15.63379 -56.12671 885 ft 159 kts 151°
2026-04-30 20:09 -15.64342 -56.12154 663 ft 153 kts 155°
2026-04-30 20:09 -15.65200 -56.11718 601 ft 96 kts 153°
2026-04-30 20:09 -15.65486 -56.11566 596 ft 14 kts 153°
2026-04-30 20:10 -15.65692 -56.11455 593 ft 18 kts 152°
2026-04-30 20:10 -15.65816 -56.11389 589 ft 23 kts 154°
2026-04-30 20:10 -15.65969 -56.11312 587 ft 25 kts 153°
2026-04-30 20:11 -15.66237 -56.11231 583 ft 14 kts 235°
2026-04-30 20:11 -15.66213 -56.11312 583 ft 11 kts 327°
2026-04-30 20:11 -15.66149 -56.11350 584 ft 10 kts 334°
2026-04-30 20:12 -15.66015 -56.11417 586 ft 11 kts 335°
2026-04-30 20:12 -15.65940 -56.11456 588 ft 13 kts 332°
2026-04-30 20:12 -15.65864 -56.11497 589 ft 12 kts 333°
2026-04-30 20:13 -15.65789 -56.11537 591 ft 12 kts 333°
2026-04-30 20:13 -15.65716 -56.11577 592 ft 12 kts 332°
2026-04-30 20:13 -15.65646 -56.11615 593 ft 11 kts 332°
2026-04-30 20:13 -15.65578 -56.11653 595 ft 11 kts 332°
2026-04-30 20:14 -15.65512 -56.11689 596 ft 9 kts 332°
2026-04-30 20:14 -15.65510 -56.11690 596 ft 0 kts 332°
2026-04-30 20:15 -15.65476 -56.11706 597 ft 8 kts 335°
2026-04-30 20:15 -15.65427 -56.11730 598 ft 8 kts 333°
2026-04-30 20:15 -15.65378 -56.11756 599 ft 8 kts 333°
2026-04-30 20:15 -15.65329 -56.11782 600 ft 8 kts 333°
2026-04-30 20:16 -15.65281 -56.11807 600 ft 8 kts 333°
2026-04-30 20:16 -15.65242 -56.11837 601 ft 7 kts 287°
2026-04-30 20:16 -15.65251 -56.11875 601 ft 0 kts 244°
2026-04-30 20:53 -15.65244 -56.11862 601 ft 2 kts 239°
2026-04-30 20:53 -15.65235 -56.11848 601 ft 2 kts 223°
2026-04-30 20:53 -15.65220 -56.11841 601 ft 2 kts 170°
2026-04-30 20:54 -15.65208 -56.11845 602 ft 0 kts 154°
2026-04-30 20:58 -15.65224 -56.11837 601 ft 4 kts 151°
2026-04-30 20:58 -15.65266 -56.11814 600 ft 8 kts 153°
2026-04-30 20:58 -15.65269 -56.11812 600 ft 0 kts 153°
2026-04-30 20:59 -15.65270 -56.11811 600 ft 1 kts 149°
2026-04-30 20:59 -15.65263 -56.11815 601 ft 2 kts 140°
2026-04-30 21:00 -15.65265 -56.11829 601 ft 0 kts 348°
2026-04-30 21:00 -15.65250 -56.11825 601 ft 6 kts 20°
2026-04-30 21:01 -15.65195 -56.11760 602 ft 6 kts 52°
2026-04-30 21:01 -15.65158 -56.11746 602 ft 6 kts 355°
2026-04-30 21:01 -15.65081 -56.11784 603 ft 7 kts 334°
2026-04-30 21:02 -15.65030 -56.11810 616 ft 9 kts 334°
2026-04-30 21:02 -15.64965 -56.11845 613 ft 13 kts 333°
2026-04-30 21:02 -15.64880 -56.11889 608 ft 14 kts 333°
2026-04-30 21:02 -15.64794 -56.11935 617 ft 14 kts 333°
2026-04-30 21:03 -15.64711 -56.11979 615 ft 13 kts 333°
2026-04-30 21:03 -15.64631 -56.12022 616 ft 13 kts 334°
2026-04-30 21:03 -15.64553 -56.12063 611 ft 12 kts 332°
2026-04-30 21:03 -15.64478 -56.12105 612 ft 12 kts 331°
2026-04-30 21:04 -15.64423 -56.12168 616 ft 12 kts 329°
2026-04-30 21:04 -15.64404 -56.12147 620 ft 4 kts 135°
2026-04-30 21:04 -15.64423 -56.12134 613 ft 3 kts 150°
2026-04-30 21:05 -15.64693 -56.11989 612 ft 88 kts 153°
2026-04-30 21:05 -15.65481 -56.11569 597 ft 164 kts 152°
2026-04-30 21:05 -15.66668 -56.10923 864 ft 207 kts 153°
2026-04-30 21:05 -15.67947 -56.10276 1792 ft 198 kts 154°
2026-04-30 21:06 -15.69147 -56.09652 2827 ft 194 kts 152°
2026-04-30 21:06 -15.70443 -56.08970 3249 ft 224 kts 152°
2026-04-30 21:06 -15.71878 -56.08212 3731 ft 243 kts 148°
2026-04-30 21:06 -15.73006 -56.06937 4473 ft 244 kts 110°
2026-04-30 21:07 -15.73107 -56.05224 5354 ft 241 kts 73°
2026-04-30 21:07 -15.72172 -56.03737 5855 ft 264 kts 41°
2026-04-30 21:07 -15.70361 -56.02815 5669 ft 316 kts 21°
2026-04-30 21:07 -15.68468 -56.01672 6503 ft 323 kts 45°
2026-04-30 21:08 -15.66850 -56.00050 7593 ft 320 kts 38°
2026-04-30 21:08 -15.64834 -55.99167 8796 ft 314 kts
2026-04-30 21:08 -15.62691 -55.99408 9890 ft 310 kts 344°
2026-04-30 21:08 -15.60665 -56.00167 10652 ft 313 kts 346°
2026-04-30 21:09 -15.58452 -56.00506 10840 ft 332 kts 359°
2026-04-30 21:09 -15.56104 -56.00611 11002 ft 352 kts 360°
2026-04-30 21:09 -15.53593 -56.00706 11141 ft 371 kts 360°
2026-04-30 21:09 -15.51010 -56.00812 11354 ft 385 kts 359°
2026-04-30 21:10 -15.48307 -56.00938 11807 ft 390 kts 359°
2026-04-30 21:10 -15.45585 -56.01078 12374 ft 393 kts 359°
2026-04-30 21:10 -15.42849 -56.01229 12943 ft 395 kts 358°
2026-04-30 21:10 -15.40092 -56.01386 13478 ft 398 kts 358°
2026-04-30 21:11 -15.38263 -56.01492 13796 ft 400 kts 358°
2026-04-30 21:11 -15.35471 -56.01656 14266 ft 402 kts 358°
2026-04-30 21:11 -15.32679 -56.01821 14771 ft 403 kts 358°
2026-04-30 21:11 -15.29892 -56.01681 14641 ft 398 kts
2026-04-30 21:12 -15.27167 -56.01302 14207 ft 394 kts
2026-04-30 21:12 -15.24539 -56.00948 14443 ft 368 kts
2026-04-30 21:12 -15.22060 -56.00609 14420 ft 353 kts 11°
2026-04-30 21:12 -15.19721 -56.00062 14446 ft 336 kts 16°
2026-04-30 21:13 -15.17513 -55.99440 14430 ft 322 kts 17°
2026-04-30 21:13 -15.15400 -55.98827 14430 ft 309 kts 17°
2026-04-30 21:13 -15.13374 -55.98236 14431 ft 296 kts 17°
2026-04-30 21:13 -15.11427 -55.97669 14435 ft 286 kts 17°
2026-04-30 21:14 -15.09499 -55.97211 14419 ft 287 kts
2026-04-30 21:14 -15.07460 -55.97370 14536 ft 303 kts 354°
2026-04-30 21:14 -15.05300 -55.97688 14686 ft 324 kts 353°
2026-04-30 21:14 -15.02998 -55.98022 14828 ft 344 kts 354°
2026-04-30 21:15 -15.00563 -55.98349 14957 ft 362 kts 354°
2026-04-30 21:15 -14.98033 -55.98662 15073 ft 378 kts 355°
2026-04-30 21:15 -14.95331 -55.98973 15181 ft 393 kts 355°
2026-04-30 21:15 -14.92614 -55.99269 15490 ft 400 kts 355°
2026-04-30 21:16 -14.89841 -55.99561 15988 ft 401 kts 355°
2026-04-30 21:16 -14.87059 -55.99848 16495 ft 402 kts 356°
2026-04-30 21:16 -14.84269 -56.00132 16979 ft 403 kts 356°
2026-04-30 21:16 -14.81463 -56.00414 17421 ft 406 kts 356°
2026-04-30 21:17 -14.78642 -56.00698 17890 ft 407 kts 356°
2026-04-30 21:17 -14.75812 -56.00982 18321 ft 409 kts 356°
2026-04-30 21:17 -14.73004 -56.01264 18683 ft 411 kts 356°
2026-04-30 21:17 -14.70149 -56.01550 19021 ft 413 kts 356°
2026-04-30 21:18 -14.67278 -56.01838 19372 ft 416 kts 356°
2026-04-30 21:18 -14.64392 -56.02128 19711 ft 418 kts 356°
2026-04-30 21:18 -14.61493 -56.02419 20051 ft 420 kts 356°
2026-04-30 21:18 -14.58573 -56.02712 20390 ft 422 kts 356°
2026-04-30 21:19 -14.55644 -56.03006 20715 ft 424 kts 356°
2026-04-30 21:19 -14.52696 -56.03302 21018 ft 427 kts 356°
2026-04-30 21:19 -14.49728 -56.03600 21329 ft 429 kts 356°
2026-04-30 21:19 -14.46746 -56.03899 21650 ft 431 kts 356°
2026-04-30 21:20 -14.43758 -56.04198 21960 ft 433 kts 356°
2026-04-30 21:20 -14.40752 -56.04499 22243 ft 435 kts 356°
2026-04-30 21:20 -14.37732 -56.04802 22533 ft 437 kts 356°
2026-04-30 21:20 -14.34695 -56.05106 22819 ft 439 kts 356°
2026-04-30 21:21 -14.31644 -56.05412 23104 ft 441 kts 356°
2026-04-30 21:21 -14.28583 -56.05718 23379 ft 443 kts 356°
2026-04-30 21:21 -14.22458 -56.06331 23840 ft 446 kts 356°
2026-04-30 21:22 -14.19356 -56.06641 24082 ft 447 kts 356°
2026-04-30 21:22 -14.10008 -56.07576 24757 ft 451 kts 355°
2026-04-30 21:23 -14.06877 -56.07889 24968 ft 453 kts 355°
2026-04-30 21:23 -14.03727 -56.08203 25154 ft 455 kts 355°
2026-04-30 21:23 -13.97560 -56.08708 26330 ft 436 kts
2026-04-30 21:24 -13.94568 -56.08397 26909 ft 429 kts 11°
2026-04-30 21:24 -13.91676 -56.07619 27154 ft 432 kts 17°
2026-04-30 21:24 -13.88776 -56.06714 27299 ft 437 kts 17°
2026-04-30 21:24 -13.85856 -56.05800 27511 ft 440 kts 17°
2026-04-30 21:25 -13.79982 -56.03984 28072 ft 442 kts 17°
2026-04-30 21:25 -13.77027 -56.03082 28322 ft 443 kts 17°
2026-04-30 21:25 -13.74061 -56.02183 28557 ft 445 kts 17°
2026-04-30 21:26 -13.68089 -56.00380 29002 ft 449 kts 16°
2026-04-30 21:26 -13.65121 -55.99485 29171 ft 452 kts 17°
2026-04-30 21:27 -13.59060 -55.97660 29606 ft 455 kts 16°
2026-04-30 21:27 -13.56017 -55.96743 29813 ft 457 kts 16°
2026-04-30 21:27 -13.52965 -55.95824 29999 ft 458 kts 16°
2026-04-30 21:28 -13.46831 -55.93977 30370 ft 460 kts 16°
2026-04-30 21:28 -13.43747 -55.93049 30548 ft 461 kts 16°
2026-04-30 21:28 -13.37567 -55.91190 30899 ft 463 kts 16°
2026-04-30 21:29 -13.34472 -55.90259 31124 ft 463 kts 16°
2026-04-30 21:29 -13.25241 -55.87484 31967 ft 459 kts 16°
2026-04-30 21:30 -13.19117 -55.85645 32474 ft 457 kts 16°
2026-04-30 21:31 -13.09989 -55.82905 32878 ft 459 kts 16°
2026-04-30 21:31 -13.03886 -55.81074 32864 ft 455 kts 16°
2026-04-30 21:32 -12.94805 -55.78351 32877 ft 451 kts 16°
2026-04-30 21:32 -12.88790 -55.76549 32870 ft 450 kts 16°
2026-04-30 21:33 -12.79774 -55.73850 32877 ft 451 kts 16°
2026-04-30 21:34 -12.73774 -55.72054 32873 ft 452 kts 16°
2026-04-30 21:34 -12.64678 -55.69334 32869 ft 455 kts 16°
2026-04-30 21:35 -12.58585 -55.67513 32875 ft 456 kts 16°
2026-04-30 21:35 -12.52476 -55.65688 32873 ft 458 kts 16°
2026-04-30 21:36 -12.46393 -55.63872 32868 ft 458 kts 16°
2026-04-30 21:37 -12.34121 -55.60211 32866 ft 458 kts 16°
2026-04-30 21:37 -12.28008 -55.58388 32870 ft 458 kts 16°
2026-04-30 21:38 -12.21969 -55.56589 32862 ft 447 kts 16°
2026-04-30 21:38 -12.16006 -55.54813 32866 ft 445 kts 16°
2026-04-30 21:39 -12.10063 -55.53044 32859 ft 445 kts 16°
2026-04-30 21:39 -12.04125 -55.51277 32866 ft 444 kts 17°
2026-04-30 21:40 -11.98230 -55.49523 32862 ft 444 kts 17°
2026-04-30 21:40 -11.92292 -55.47758 32863 ft 445 kts 17°
2026-04-30 21:41 -11.86339 -55.45989 32855 ft 445 kts 17°
2026-04-30 21:41 -11.80384 -55.44220 32863 ft 446 kts 17°
2026-04-30 21:42 -11.74381 -55.42438 32864 ft 447 kts 17°
2026-04-30 21:42 -11.68447 -55.40677 32855 ft 447 kts 17°
2026-04-30 21:43 -11.62460 -55.38901 32863 ft 447 kts 17°
2026-04-30 21:43 -11.56502 -55.37134 32858 ft 448 kts 17°
2026-04-30 21:44 -11.50514 -55.35360 32853 ft 448 kts 17°
2026-04-30 21:44 -11.44531 -55.33587 32852 ft 447 kts 17°
2026-04-30 21:45 -11.38557 -55.31818 32851 ft 447 kts 17°
2026-04-30 21:45 -11.32573 -55.30047 32857 ft 447 kts 17°
2026-04-30 21:46 -11.26626 -55.28287 32853 ft 447 kts 17°
2026-04-30 21:46 -11.20651 -55.26520 32853 ft 446 kts 17°
2026-04-30 21:47 -11.14684 -55.24756 32853 ft 446 kts 17°
2026-04-30 21:47 -11.08718 -55.22993 32854 ft 446 kts 17°
2026-04-30 21:48 -11.02725 -55.21527 32860 ft 446 kts 10°
2026-04-30 21:48 -10.96571 -55.20638 32852 ft 446 kts
2026-04-30 21:49 -10.90400 -55.19788 32476 ft 448 kts
2026-04-30 21:49 -10.87330 -55.19352 32083 ft 442 kts
2026-04-30 21:49 -10.84298 -55.18911 31634 ft 438 kts 10°
2026-04-30 21:50 -10.81289 -55.18468 31179 ft 434 kts 10°
2026-04-30 21:50 -10.78310 -55.18026 30746 ft 431 kts 10°
2026-04-30 21:50 -10.75386 -55.17590 30284 ft 429 kts 10°
2026-04-30 21:50 -10.72438 -55.17150 29817 ft 427 kts 11°
2026-04-30 21:51 -10.69504 -55.16713 29309 ft 424 kts 11°
2026-04-30 21:51 -10.66604 -55.16281 28822 ft 420 kts 11°
2026-04-30 21:51 -10.63721 -55.15851 28351 ft 416 kts 11°
2026-04-30 21:51 -10.60852 -55.15425 27890 ft 413 kts 11°
2026-04-30 21:52 -10.58042 -55.15007 27446 ft 410 kts 11°
2026-04-30 21:52 -10.55237 -55.14590 26999 ft 407 kts 11°
2026-04-30 21:52 -10.52447 -55.14176 26625 ft 402 kts 11°
2026-04-30 21:52 -10.49702 -55.13768 26406 ft 399 kts 11°
2026-04-30 21:53 -10.46931 -55.13354 26202 ft 414 kts 11°
2026-04-30 21:53 -10.44031 -55.12919 25980 ft 428 kts 11°
2026-04-30 21:53 -10.41042 -55.12472 25759 ft 440 kts 11°
2026-04-30 21:53 -10.37972 -55.12015 25541 ft 451 kts 11°
2026-04-30 21:54 -10.34838 -55.11549 25316 ft 460 kts 11°
2026-04-30 21:54 -10.31642 -55.11075 25090 ft 468 kts 11°
2026-04-30 21:54 -10.28397 -55.10595 24853 ft 471 kts 11°
2026-04-30 21:54 -10.25147 -55.10115 24042 ft 470 kts 11°
2026-04-30 21:55 -10.21945 -55.09643 23298 ft 458 kts 11°
2026-04-30 21:55 -10.18843 -55.09188 22534 ft 443 kts 11°
2026-04-30 21:55 -10.15811 -55.08740 21866 ft 439 kts 11°
2026-04-30 21:55 -10.12800 -55.08294 21199 ft 435 kts 11°
2026-04-30 21:56 -10.09862 -55.07857 20557 ft 435 kts 11°
2026-04-30 21:56 -10.06859 -55.07409 19873 ft 440 kts 11°
2026-04-30 21:56 -10.03828 -55.06958 19190 ft 439 kts 11°
2026-04-30 21:56 -10.00820 -55.06513 18510 ft 435 kts 11°
2026-04-30 21:57 -9.97835 -55.06071 17801 ft 433 kts 11°
2026-04-30 21:57 -9.94865 -55.05642 17094 ft 429 kts
2026-04-30 21:57 -9.91915 -55.05588 16691 ft 423 kts 357°
2026-04-30 21:57 -9.89053 -55.05901 16565 ft 403 kts 357°
2026-04-30 21:58 -9.86341 -55.06189 16375 ft 380 kts 357°
2026-04-30 21:58 -9.83747 -55.06450 15833 ft 371 kts 358°
2026-04-30 21:58 -9.82040 -55.06614 15302 ft 371 kts 358°
2026-04-30 21:58 -9.79468 -55.06854 14496 ft 371 kts 358°
2026-04-30 21:59 -9.76906 -55.07091 13793 ft 369 kts 358°
2026-04-30 21:59 -9.74358 -55.07327 13066 ft 366 kts 358°
2026-04-30 21:59 -9.71830 -55.07561 12379 ft 362 kts 358°
2026-04-30 22:00 -9.66859 -55.08022 11034 ft 354 kts 358°
2026-04-30 22:00 -9.62023 -55.08471 9739 ft 348 kts 358°
2026-04-30 22:00 -9.59624 -55.08693 9057 ft 345 kts 358°
2026-04-30 22:01 -9.57237 -55.08915 8392 ft 342 kts 358°
2026-04-30 22:01 -9.54880 -55.09134 7852 ft 335 kts 358°
2026-04-30 22:01 -9.52631 -55.09345 7740 ft 315 kts 358°
2026-04-30 22:01 -9.50504 -55.09545 7618 ft 298 kts 358°
2026-04-30 22:02 -9.48496 -55.09885 7290 ft 294 kts 342°
2026-04-30 22:02 -9.46733 -55.10946 6834 ft 297 kts 323°
2026-04-30 22:02 -9.45155 -55.12286 6385 ft 296 kts 321°
2026-04-30 22:02 -9.43602 -55.13656 5932 ft 294 kts 321°
2026-04-30 22:03 -9.42069 -55.15015 5507 ft 292 kts 321°
2026-04-30 22:03 -9.40571 -55.16346 5187 ft 286 kts 321°
2026-04-30 22:03 -9.39107 -55.17645 5071 ft 273 kts 321°
2026-04-30 22:03 -9.37719 -55.18879 5023 ft 256 kts 321°
2026-04-30 22:04 -9.36428 -55.20029 5003 ft 239 kts 321°
2026-04-30 22:04 -9.35208 -55.21094 4874 ft 226 kts 328°
2026-04-30 22:04 -9.32614 -55.20886 4380 ft 187 kts 53°
2026-04-30 22:05 -9.31815 -55.19853 4172 ft 187 kts 62°
2026-04-30 22:05 -9.31352 -55.18666 3933 ft 176 kts 80°
2026-04-30 22:05 -9.31161 -55.17486 3731 ft 161 kts 82°
2026-04-30 22:05 -9.31011 -55.16415 3786 ft 149 kts 83°
2026-04-30 22:06 -9.30866 -55.15385 3774 ft 146 kts 84°
2026-04-30 22:06 -9.30578 -55.13364 3790 ft 139 kts 83°
2026-04-30 22:06 -9.30446 -55.12450 3752 ft 124 kts 83°
2026-04-30 22:07 -9.30352 -55.11632 3718 ft 113 kts 90°
2026-04-30 22:07 -9.30460 -55.10824 3803 ft 124 kts 101°
2026-04-30 22:07 -9.30637 -55.09920 3788 ft 129 kts 101°
2026-04-30 22:07 -9.30808 -55.09077 3601 ft 118 kts 101°
2026-04-30 22:08 -9.30975 -55.08254 3410 ft 117 kts 100°
2026-04-30 22:08 -9.31137 -55.07461 3449 ft 115 kts 100°
2026-04-30 22:08 -9.31301 -55.06659 3433 ft 121 kts 101°
2026-04-30 22:08 -9.31472 -55.05821 3269 ft 119 kts 101°
2026-04-30 22:09 -9.31644 -55.04983 3165 ft 129 kts 101°
2026-04-30 22:09 -9.31824 -55.04102 2965 ft 127 kts 101°
2026-04-30 22:09 -9.31999 -55.03243 2813 ft 122 kts 101°
2026-04-30 22:09 -9.32174 -55.02389 2670 ft 132 kts 101°
2026-04-30 22:10 -9.32371 -55.01424 2470 ft 140 kts 100°
2026-04-30 22:10 -9.32568 -55.00457 2302 ft 143 kts 101°
2026-04-30 22:10 -9.32771 -54.99468 2128 ft 145 kts 100°
2026-04-30 22:10 -9.32976 -54.98457 1941 ft 147 kts 100°
2026-04-30 22:11 -9.33334 -54.96715 1769 ft 51 kts 103°
2026-04-30 22:11 -9.33404 -54.96634 1770 ft 11 kts 184°
2026-04-30 22:11 -9.33476 -54.96643 1770 ft 10 kts 189°
2026-04-30 22:12 -9.33540 -54.96659 1768 ft 9 kts 193°
2026-04-30 22:12 -9.33602 -54.96674 1768 ft 9 kts 193°
2026-04-30 22:12 -9.33657 -54.96659 1769 ft 9 kts 123°
2026-04-30 22:12 -9.33663 -54.96601 1769 ft 9 kts 62°
2026-04-30 22:13 -9.33616 -54.96615 1769 ft 8 kts 310°
2026-04-30 22:13 -9.33604 -54.96631 1768 ft 0 kts 307°
2026-04-30 22:13 -9.33528 -54.97292 1768 ft 0 kts 328°